Lid_Strength_Index
5 5 5 5 5 5 4 4 4 4 4 4 4 3 4 4 4 4 3 3 4 5 5 5 5 6 5 5 7 5 6 5 6 7 8 7 7 7 7 6 7 8 9 9 8 10 11 5 5 8 6 4 4 4
5 5 5 5 5 5 4 4 4 4 4 4 4 4 4 4 4 4 4 3 3 4 5 5 5 5 5 5 6 6 6 6 5 7 5 6 7 6 7 9 5 9 7 9 8 9 5 4 5 4 4 4 4 4
5 5 5 5 5 5 4 4 4 4 4 4 4 4 4 4 5 5 3 3 3 5 5 5 6 5 4 5 5 7 4 5 5 5 6 6 8 6 8 7 6 6 5 7 7 6 5 5 4 4 4 4 4 3
4 5 5 5 5 4 4 4 4 4 4 4 4 4 4 4 4 5 4 3 4 5 7 6 4 6 4 4 5 5 6 5 5 5 7 7 8 5 7 7 7 6 5 6 6 5 5 4 4 4 4 4 4 4
4 4 4 4 4 4 4 4 4 4 4 4 4 4 4 5 4 4 2 3 3 5 7 6 5 5 5 5 5 5 6 6 6 7 7 8 6 7 6 7 7 5 6 8 8 5 5 5 3 3 4 4 4 4
4 4 4 4 4 4 4 4 4 4 4 4 4 4 5 5 5 3 4 3 3 3 6 7 5 6 5 5 5 5 5 5 6 6 7 6 5 6 8 8 5 4 4 4 5 4 4 4 2 3 3 4 4 4
4 4 4 4 4 4 4 4 4 4 4 4 4 5 6 5 4 4 5 5 5 3 6 8 7 6 5 5 5 5 5 5 6 6 7 6 6 6 7 8 5 4 4 4 4 4 4 4 4 2 2 3 3 3
4 4 4 4 4 4 4 4 4 4 4 5 5 5 6 5 6 4 3 4 5 5 5 8 7 7 4 6 6 3 6 5 5 6 6 6 6 6 8 5 4 4 4 4 4 4 4 3 3 3 3 3 3 4
4 4 4 4 3 4 4 4 5 5 5 5 5 5 4 4 4 4 4 4 2 4 6 5 7 7 3 5 4 5 4 7 5 7 6 5 7 8 5 4 4 4 4 5 4 4 4 4 4 3 3 3 3 3
4 4 4 4 3 4 4 5 5 5 5 5 4 4 4 4 4 3 3 4 4 3 4 6 3 6 4 5 6 6 5 7 8 6 4 6 7 4 3 3 3 3 4 4 5 5 5 5 4 4 3 2 2 2
4 4 4 4 4 4 4 5 5 6 4 4 6 5 5 3 3 3 5 6 5 6 4 4 4 5 2 6 6 5 7 6 9 7 7 7 7 5 3 3 2 3 4 4 4 4 4 4 4 3 2 2 2 2
4 4 4 4 4 4 5 5 5 4 5 7 8 5 4 3 4 7 7 6 6 7 4 5 5 4 4 3 5 5 7 7 10 5 8 10 6 4 3 4 4 4 4 5 4 5 4 4 3 3 2 2 2 1
4 4 4 4 5 5 5 5 5 5 6 4 5 5 4 5 11 9 10 6 7 4 3 4 5 4 3 4 5 6 10 10 7 10 11 9 5 4 4 4 5 5 5 5 5 4 5 4 4 3 2 2 1 1
4 4 4 5 5 5 5 5 5 6 5 4 6 11 7 8 6 6 6 6 5 5 6 6 6 6 6 9 9 11 9 9 11 12 10 7 5 4 4 4 5 5 4 4 4 4 4 4 3 2 2 2 1 2
4 4 5 4 4 5 5 5 5 4 4 5 5 11 7 5 5 4 3 5 5 5 6 7 7 7 9 10 9 9 11 12 11 10 8 6 5 4 4 4 4 4 4 5 5 4 4 4 4 3 2 1 1 1
4 5 3 5 6 6 6 5 3 2 3 5 5 7 5 5 5 4 5 6 5 6 6 7 10 10 10 9 11 11 12 12 10 8 7 6 7 7 6 5 5 5 6 6 5 5 4 4 4 3 2 2 2 1
6 3 6 6 6 6 5 4 2 4 4 5 6 5 5 5 5 5 5 6 5 7 10 10 12 11 8 10 11 9 10 9 8 8 7 6 6 5 5 4 4 5 6 6 6 5 5 4 3 3 3 2 2 1
5 3 6 6 5 5 2 3 4 4 6 5 6 5 4 4 5 5 5 5 7 8 9 11 9 11 12 13 12 9 8 8 8 7 7 6 5 5 5 5 4 4 5 5 6 4 5 4 4 4 3 2 2 1
4 5 6 6 6 6 5 3 3 6 5 4 4 4 4 4 4 4 5 5 6 6 9 10 12 13 13 10 10 9 8 8 8 7 6 5 5 4 4 4 4 3 4 4 4 4 4 3 3 3 3 3 3 3
5 6 6 6 4 4 5 4 3 5 6 4 4 5 4 4 5 5 5 6 7 9 11 13 13 11 11 9 8 8 8 6 7 8 7 5 4 4 4 4 4 4 4 4 4 5 4 3 3 3 2 3 3 3
6 5 6 4 3 3 4 4 5 4 5 5 5 5 5 5 6 6 7 6 9 11 13 11 11 10 9 8 8 7 5 4 6 6 6 5 4 4 4 3 3 4 4 4 5 5 5 3 3 2 2 3 2 2
5 6 4 4 5 5 7 5 6 5 6 5 5 5 5 7 7 6 5 8 10 9 10 10 9 8 7 7 5 4 4 4 3 4 4 4 5 5 6 5 4 5 4 4 5 5 4 3 3 2 2 3 2 2
6 5 4 5 8 8 8 5 7 6 7 6 5 6 7 8 6 5 8 8 8 6 7 7 7 6 6 4 3 4 3 3 4 4 4 4 5 6 5 4 4 5 5 5 4 4 3 4 3 2 2 2 2 2
6 6 8 8 8 10 6 8 6 6 6 7 8 9 8 8 5 7 10 9 7 6 6 6 6 6 5 4 5 5 4 3 3 3 4 5 6 6 5 5 4 4 4 4 3 2 2 2 4 3 2 2 2 3
9 10 9 12 8 10 10 8 7 7 8 8 8 9 8 7 9 9 10 9 7 6 5 5 5 5 6 5 4 4 2 2 3 4 3 3 4 4 4 4 4 3 3 4 3 3 3 2 2 2 3 4 4 4
12 8 11 8 7 9 7 9 9 8 8 8 8 7 7 8 10 10 9 7 7 6 7 6 5 6 5 4 5 4 3 2 2 3 3 2 3 4 6 5 4 3 2 3 3 3 4 4 4 4 5 6 8 6
12 9 7 5 6 6 7 6 6 7 8 8 8 8 8 11 10 7 4 4 5 3 4 4 3 5 4 4 3 2 1 1 2 2 1 1 2 2 4 6 5 4 3 3 3 4 5 5 5 4 6 6 6 6
9 8 9 7 7 7 9 9 9 8 7 6 7 10 10 9 8 5 4 3 4 3 3 2 2 2 3 3 2 2 1 1 1 1 1 2 2 2 3 4 4 9 3 3 3 4 4 4 5 5 5 5 5 5
9 7 7 9 9 9 9 8 7 5 5 6 8 9 8 5 4 4 5 3 2 2 4 3 3 2 2 1 1 1 1 2 3 4 5 4 3 3 2 3 3 3 3 3 8 6 4 5 4 4 3 3 3 3
9 6 9 10 10 9 6 5 5 5 5 5 5 5 5 5 3 2 2 2 4 3 3 3 2 2 3 3 3 2 1 1 2 3 4 4 3 2 2 3 4 4 4 4 4 3 8 4 5 4 5 4 3 3
7 8 9 9 9 5 4 3 4 5 5 5 5 5 5 4 3 1 2 2 1 2 2 2 2 2 2 2 3 3 3 2 1 1 1 1 1 1 1 1 2 2 2 2 2 2 3 4 4 3 4 4 4 3
8 9 9 10 7 5 4 6 6 5 5 5 5 4 4 4 5 3 1 1 2 2 3 3 2 2 1 1 1 1 5 1 1 1 0 1 1 1 1 1 1 2 2 3 2 2 3 3 2 2 3 4 4 3
8 8 9 9 8 7 5 6 6 6 6 6 5 4 4 5 6 3 0 -0 1 2 2 1 1 1 0 1 1 1 3 0 5 11 10 10 11 9 3 1 1 1 2 2 2 1 2 2 2 2 2 1 1 1